User: anonymous   Login
Location: Unspecified
(47.1700°N, 0.0000°E)
Time: 00:37:49
(UTC+00:00)
Language:

UWE-3 - Orbit

View from above orbital plane
View from above orbital plane
View from above satellite
View from above satellite

Ground track
Ground track

The orbit data is extracted from the following two-line orbital elements,

1 39446U 13066AG  19231.54891472  .00000112  00000-0  21610-4 0  9996
2 39446  97.5826 233.4315 0068993 217.2198 142.4221 14.78408785308404
Epoch (UTC): 19 August 2019 13:10:26
Eccentricity: 0.0068993
inclination: 97.5826°
perigee height: 586 km
apogee height: 683 km
right ascension of ascending node: 233.4315°
argument of perigee: 217.2198°
revolutions per day: 14.78408785
mean anomaly at epoch: 142.4221°
orbit number at epoch: 30840

The dashed part of the orbit path shows where the satellite is in the earth's shadow,  

DLR